[[{"header":{"parameterUnit":"m.s-1","parameterCategory":1,"la1":30.2992,"la2":30.254,"lo1":-89.0895,"lo2":-89.0443,"dy":0.0025,"dx":0.0025,"nx":19,"ny":19,"refTime":"2026-03-26T03:00:00:Z","depth":0,"parameterNumber":2,"parameterNumberName":"U-component_of_WINDS"},"data":[0,0,0,3.6646,3.665,3.6838,3.6839,3.707,3.7072,0,0,0,0,0,0,0,0,0,0,0,3.6581,3.6583,3.6646,3.665,3.6838,3.6839,3.7069,3.7072,0,0,0,0,0,0,0,0,0,0,0,3.6581,3.6582,3.6584,3.6651,3.6838,3.6839,3.7069,3.6931,0,0,0,0,0,0,0,0,0,0,3.675,3.6681,3.6582,3.6584,3.6652,3.6838,3.6839,3.6924,3.694,3.6979,0,3.701,0,3.7045,3.7086,3.7087,0,0,0,3.6657,3.6668,3.6727,3.6584,3.6654,3.6838,3.6755,3.6933,3.695,3.6999,3.7014,3.7023,3.7049,3.7088,3.7089,3.7296,3.7296,0,0,3.6646,3.661,3.6715,3.6738,3.6706,3.6749,3.6761,3.6943,3.6957,3.7015,3.7028,3.7052,3.7089,3.7091,3.7295,3.7296,0,0,0,3.6612,3.6602,3.6658,3.6728,3.6763,3.6754,3.6768,3.6949,3.697,3.7031,3.7055,3.709,3.7093,3.7294,3.7295,3.7292,0,0,0,3.6606,3.6583,3.6653,3.6632,3.6759,3.6858,3.6769,3.6958,3.6979,3.7054,3.709,3.7095,3.7294,3.7295,3.7291,3.7296,0,0,0,3.6572,3.6579,3.6603,3.663,3.671,3.6856,3.6887,3.6963,3.6994,3.7087,3.7096,3.7293,3.7295,3.729,3.7294,3.7341,0,0,0,3.6525,3.6595,3.6602,3.6692,3.6708,3.6853,3.6886,3.6996,3.7076,3.7092,3.7294,3.7295,3.7289,3.7293,3.7339,3.7372,3.7383,0,0,3.6594,3.6602,3.6658,3.667,3.6804,3.6827,3.6962,3.7069,3.7111,3.7232,3.7238,3.7291,3.7294,3.734,3.7459,3.7467,0,0,0,3.6668,3.6707,3.6751,3.6826,3.6911,3.6986,3.7076,3.7118,3.7223,3.7165,3.7323,3.7325,3.7354,3.7372,3.7379,3.7407,3.7302,3.7302,3.7302,3.6709,3.6763,3.686,3.6937,3.701,3.7107,3.7172,3.7245,3.7274,3.7311,3.7346,3.7412,3.7431,3.7436,3.7465,3.737,3.737,3.737,3.737,3.6814,3.6878,3.6923,3.7032,3.709,3.7184,3.7283,3.7303,3.74,3.7388,3.7416,3.7396,3.7443,3.7471,3.737,3.737,3.737,3.737,3.737,3.6845,3.6885,3.6937,3.7056,3.7143,3.7221,3.7314,3.7363,3.741,3.7439,3.7483,3.7483,3.7489,3.7457,3.7457,3.7457,3.7458,3.7458,3.7458,3.6855,3.6914,3.6985,3.7088,3.7146,3.723,3.7334,3.7394,3.7472,3.7501,3.7502,3.7529,3.7439,3.7414,3.7462,3.7461,3.7461,3.746,3.746,3.6937,3.6928,3.7038,3.7097,3.7225,3.7311,3.7376,3.7495,3.7552,3.7597,3.7623,3.7548,3.7559,3.7554,3.7534,3.761,3.761,3.761,3.761,3.6961,3.6974,3.7101,3.7193,3.729,3.7362,3.749,3.7576,3.7662,3.7702,3.77,3.7679,3.7671,3.7688,3.768,3.7661,3.7768,3.7768,3.7768,3.7015,3.7041,3.7137,3.7223,3.7329,3.7421,3.7543,3.765,3.7747,3.7776,3.7735,3.7728,3.7695,3.7681,3.7701,3.7688,3.7655,0,0]},{"header":{"parameterUnit":"m.s-1","parameterCategory":1,"la1":30.2992,"la2":30.254,"lo1":-89.0895,"lo2":-89.0443,"dy":0.0025,"dx":0.0025,"nx":19,"ny":19,"refTime":"2026-03-26T03:00:00:Z","depth":0,"parameterNumber":3,"parameterNumberName":"V-component_of_WINDS"},"data":[0,0,0,-1.4017,-1.4009,-1.3636,-1.3635,-1.3158,-1.3154,0,0,0,0,0,0,0,0,0,0,0,-1.4136,-1.4134,-1.4017,-1.4008,-1.3636,-1.3634,-1.3159,-1.3154,0,0,0,0,0,0,0,0,0,0,0,-1.4138,-1.4134,-1.4131,-1.4007,-1.3637,-1.3634,-1.316,-1.3439,0,0,0,0,0,0,0,0,0,0,-1.3799,-1.3921,-1.4135,-1.4131,-1.4005,-1.3637,-1.3634,-1.3452,-1.3421,-1.333,0,-1.3261,0,-1.3201,-1.3123,-1.3122,0,0,0,-1.3998,-1.3947,-1.384,-1.413,-1.4002,-1.3638,-1.3801,-1.3435,-1.34,-1.329,-1.3254,-1.3236,-1.3193,-1.312,-1.3118,-1.2652,-1.265,0,0,-1.4018,-1.4071,-1.3864,-1.3818,-1.3887,-1.3813,-1.379,-1.3414,-1.3374,-1.3252,-1.3225,-1.3185,-1.3117,-1.3114,-1.2653,-1.2651,0,0,0,-1.4085,-1.4086,-1.3988,-1.3838,-1.3772,-1.3803,-1.3776,-1.339,-1.3354,-1.3219,-1.318,-1.3115,-1.3109,-1.2655,-1.2653,-1.2622,0,0,0,-1.4096,-1.4125,-1.3997,-1.4026,-1.3779,-1.3578,-1.3761,-1.3381,-1.3336,-1.3182,-1.3114,-1.3104,-1.2657,-1.2654,-1.2627,-1.2595,0,0,0,-1.4157,-1.4132,-1.4083,-1.4029,-1.3873,-1.3583,-1.3525,-1.337,-1.3312,-1.3121,-1.3103,-1.2658,-1.2654,-1.2631,-1.2602,-1.2486,0,0,0,-1.4234,-1.4055,-1.4083,-1.3868,-1.3876,-1.3572,-1.3527,-1.3295,-1.3128,-1.3112,-1.2657,-1.2653,-1.2632,-1.2606,-1.2492,-1.2396,-1.2363,0,0,-1.4037,-1.4034,-1.3903,-1.3917,-1.3623,-1.3625,-1.3321,-1.3112,-1.304,-1.2783,-1.2771,-1.2625,-1.2602,-1.2487,-1.217,-1.2145,0,0,0,-1.3858,-1.3764,-1.3675,-1.3524,-1.3369,-1.3229,-1.3064,-1.2987,-1.2768,-1.2923,-1.2554,-1.2538,-1.2468,-1.2419,-1.2397,-1.2331,-1.2635,-1.2635,-1.2636,-1.3648,-1.3577,-1.3355,-1.3238,-1.3092,-1.2927,-1.2798,-1.2665,-1.2627,-1.2542,-1.2462,-1.228,-1.2225,-1.2208,-1.2141,-1.2411,-1.241,-1.241,-1.241,-1.3349,-1.3203,-1.3169,-1.2941,-1.2862,-1.2665,-1.25,-1.2481,-1.2281,-1.2333,-1.2267,-1.2324,-1.2183,-1.2119,-1.2407,-1.2407,-1.2408,-1.2408,-1.2408,-1.3199,-1.3116,-1.3035,-1.2812,-1.2646,-1.2532,-1.2345,-1.2279,-1.2214,-1.215,-1.2057,-1.2057,-1.2044,-1.2113,-1.2112,-1.2111,-1.2111,-1.211,-1.211,-1.3073,-1.2982,-1.2837,-1.2663,-1.2559,-1.2412,-1.2249,-1.214,-1.2002,-1.1968,-1.1967,-1.1935,-1.2187,-1.2249,-1.2099,-1.2101,-1.2102,-1.2103,-1.2104,-1.2784,-1.2842,-1.2618,-1.2515,-1.2304,-1.2143,-1.2067,-1.1853,-1.1754,-1.1662,-1.1648,-1.1848,-1.1834,-1.1851,-1.19,-1.1669,-1.1669,-1.1669,-1.1669,-1.2653,-1.2646,-1.2403,-1.2243,-1.2077,-1.1988,-1.1729,-1.16,-1.1474,-1.1406,-1.1432,-1.1495,-1.1516,-1.1489,-1.1514,-1.1558,-1.1245,-1.1245,-1.1245,-1.2469,-1.2444,-1.2239,-1.2129,-1.196,-1.1814,-1.1568,-1.1377,-1.1245,-1.1226,-1.1351,-1.1369,-1.147,-1.1508,-1.1483,-1.1522,-1.1603,0,0]}]]